Location: Fazenda Monte Alegre
(4.8500°S, 38.0333°W)
Time: 17:01:21
(UTC+00:00)

BLOCK DM-SL R/B - Pass Details

Date: 24 September 2020
Orbit: 227 x 27859 km, 0.2° (Epoch: 24 October)

Event Time Altitude Azimuth Distance (km) Brightness Sun altitude
Rises 20:02:37 0° 284° (WNW) 2,280 6.4 5.4°
Reaches altitude 10° 20:03:50 10° 290° (WNW) 1,725 5.5 5.1°
Maximum altitude 20:07:10 56° 10° (N) 1,134 2.9 4.2°
Drops below altitude 10° 20:24:07 10° 85° (E) 8,038 6.5 0.0°
Enters shadow 20:35:55 - 87° (E) 12,055 7.4 -2.9°
